This is the latest recevied weather packets stored in our database for station/object N4WFF. If no packets are shown the sender has not sent any weather packets the latest 10 day(s).
| Time | Temp. | Humidity | Pressure | Rain* | Wind** | Luminosity | Snow |
|---|---|---|---|---|---|---|---|
| 1777776055 | 11.11° C | 86% | 1017.1 hPa | 0 mm | - | 0 W/m² | - |
| 1777775755 | 11.11° C | 84% | 1017 hPa | 0 mm | - | 0 W/m² | - |
| 1777775455 | 11.67° C | 83% | 1016.9 hPa | 0 mm | - | 0 W/m² | - |
| 1777775156 | 11.67° C | 82% | 1016.9 hPa | 0 mm | - | 0 W/m² | - |
| 1777774855 | 11.67° C | 82% | 1016.8 hPa | 0 mm | - | 0 W/m² | - |
| 1777774555 | 11.67° C | 81% | 1016.7 hPa | 0 mm | - | 0 W/m² | - |
| 1777774255 | 12.22° C | 82% | 1016.7 hPa | 0 mm | - | 0 W/m² | - |
| 1777773955 | 12.22° C | 81% | 1016.6 hPa | 0 mm | - | 0 W/m² | - |
| 1777773655 | 12.22° C | 80% | 1016.6 hPa | 0 mm | - | 0 W/m² | - |
| 1777773355 | 12.78° C | 81% | 1016.5 hPa | 0 mm | - | 0 W/m² | - |
| 1777773055 | 12.78° C | 80% | 1016.4 hPa | 0 mm | - | 0 W/m² | - |
| 1777772755 | 13.33° C | 77% | 1016.4 hPa | 0 mm | - | 0 W/m² | - |
| 1777772455 | 13.33° C | 76% | 1016.4 hPa | 0 mm | - | 0 W/m² | - |
| 1777772156 | 13.89° C | 77% | 1016.3 hPa | 0 mm | - | 0 W/m² | - |
| 1777771857 | 13.89° C | 74% | 1016.2 hPa | 0 mm | - | 0 W/m² | - |
| 1777771555 | 14.44° C | 73% | 1016.1 hPa | 0 mm | - | 0 W/m² | - |
| 1777771257 | 15° C | 75% | 1016.1 hPa | 0 mm | - | 0 W/m² | - |
| 1777770955 | 15° C | 66% | 1015.9 hPa | 0 mm | - | 0 W/m² | - |
| 1777770655 | 15.56° C | 62% | 1015.9 hPa | 0 mm | - | 0 W/m² | - |
| 1777770355 | 16.11° C | 63% | 1015.8 hPa | 0 mm | - | 0 W/m² | - |
| 1777770056 | 16.11° C | 59% | 1015.7 hPa | 0 mm | - | 0 W/m² | - |
| 1777769755 | 16.11° C | 55% | 1015.6 hPa | 0 mm | - | 0 W/m² | - |
| 1777769455 | 16.67° C | 54% | 1015.4 hPa | 0 mm | - | 0 W/m² | - |
| 1777769155 | 16.67° C | 54% | 1015.3 hPa | 0 mm | - | 0 W/m² | - |
| 1777768855 | 16.67° C | 54% | 1015.2 hPa | 0 mm | - | 0 W/m² | - |
* Rain latest hour (hover to see other rain measurements)
** Current wind speed in m/s (hover to see current wind gust speed)